Temp
58 52 48 55 58 59 54 54 51 55 56 51 53 54 59 64 63 61 61 63 65 67 70 72 70 68 66 65 66 68 65 64 65 62 61 58 60 59 61 69 66 67 66 65
52 47 59 60 59 57 52 50 50 56 56 51 51 53 58 62 63 64 64 64 65 66 68 70 68 65 65 65 63 64 66 64 65 64 63 59 57 57 59 59 59 62 64 64
50 54 61 58 52 52 50 49 50 50 52 53 46 47 53 60 63 64 66 68 67 66 66 68 67 65 62 62 61 63 65 65 64 63 60 57 56 55 55 54 58 57 59 60
53 58 55 52 52 54 48 56 55 52 46 40 48 35 48 58 59 62 62 61 62 65 67 68 66 62 61 63 60 62 62 61 62 61 60 58 58 54 52 52 53 56 56 57
50 50 49 49 53 57 50 53 51 49 43 42 42 36 46 55 55 60 63 64 63 63 64 64 65 66 63 60 58 58 59 60 60 62 61 58 54 53 51 51 51 54 54 55
49 52 52 53 52 53 54 50 49 46 44 32 43 43 43 50 55 58 60 62 63 60 61 62 62 61 60 58 57 56 57 57 58 58 59 56 54 52 51 50 51 52 52 52
49 48 50 53 48 50 48 46 33 31 28 30 42 40 49 56 60 59 60 58 58 58 59 58 57 57 56 55 54 55 56 56 56 56 56 56 54 53 52 52 51 51 51 50
42 38 47 52 51 46 45 46 34 27 28 31 36 34 45 58 58 58 60 59 56 57 60 58 59 58 55 55 53 53 54 54 55 55 54 55 56 56 56 54 53 52 51 50
43 44 49 51 52 53 45 40 49 38 26 27 37 45 55 56 57 57 57 58 58 58 57 57 58 58 54 53 52 52 52 53 54 54 53 53 53 53 54 53 51 51 51 51
49 41 45 45 50 49 46 51 37 36 23 23 35 38 43 50 54 57 54 53 56 56 55 56 57 56 54 53 53 53 53 52 52 53 52 52 52 52 53 52 50 51 51 51
50 44 37 43 42 43 42 41 43 45 38 28 28 37 52 52 55 55 54 57 53 52 54 55 55 54 53 52 51 51 51 51 51 51 51 50 49 50 51 51 50 49 49 48
49 46 35 39 45 45 44 46 46 35 33 34 32 41 54 56 56 57 56 57 56 56 57 56 56 55 52 51 50 50 50 50 50 50 50 48 49 49 49 49 49 48 47 45
48 38 27 34 39 42 40 45 47 46 37 32 28 39 57 52 55 55 53 52 57 55 54 57 58 56 56 54 52 50 50 50 49 49 48 47 47 47 47 48 48 47 46 43
48 38 35 33 39 43 38 41 45 44 31 38 38 44 52 53 53 55 55 54 55 57 58 57 56 58 59 58 55 52 51 50 48 48 47 45 45 46 46 47 46 45 44 40
44 33 36 39 42 43 41 38 40 40 40 36 42 43 51 55 55 56 58 58 58 59 59 59 58 59 57 56 56 55 54 51 49 47 46 47 44 45 45 44 42 41 39 39
44 34 36 33 40 41 38 42 43 43 43 43 44 44 56 58 59 58 59 57 56 56 57 58 58 58 57 57 57 56 54 51 48 47 46 46 42 40 40 40 39 38 36 35
38 34 32 30 35 35 31 36 40 43 46 46 41 49 53 52 54 56 56 55 57 58 60 58 57 57 57 55 54 52 51 49 44 41 36 36 37 37 38 37 36 35 34 33
36 34 32 29 31 23 37 46 46 44 46 48 49 51 53 54 56 57 55 55 58 58 59 58 57 53 50 49 48 47 41 41 40 34 33 31 35 33 32 33 33 33 32 31
41 36 30 27 25 32 37 43 39 37 40 48 49 52 53 50 48 52 52 49 49 49 49 46 44 45 45 44 42 38 37 37 37 35 34 33 31 30 31 29 30 30 29 27
40 40 32 27 13 9 37 45 48 46 32 43 44 43 42 43 38 46 45 46 46 46 44 42 40 42 43 40 39 36 36 33 34 34 34 33 30 28 27 29 28 26 26 30
26 24 27 28 25 29 36 41 43 27 31 32 38 40 39 39 43 45 46 46 44 42 41 40 38 40 38 37 34 34 33 30 30 29 28 28 28 27 28 27 25 24 25 29
25 19 20 21 23 22 35 36 33 37 35 34 36 38 39 40 42 41 42 40 40 40 39 37 36 35 35 31 30 29 28 29 26 26 26 24 23 27 26 25 23 23 22 26
21 30 24 29 27 36 36 37 42 40 39 39 40 41 41 40 39 40 40 42 40 38 36 34 30 30 30 27 28 27 27 27 25 24 24 24 24 26 25 25 23 23 22 24
27 29 23 23 30 34 35 39 39 42 41 41 41 41 41 40 39 39 39 39 37 34 32 28 26 29 27 26 28 25 25 27 24 23 24 28 29 25 23 25 25 25 24 24
27 27 22 23 30 29 32 35 39 38 40 40 41 40 40 39 40 40 39 35 36 36 27 26 26 26 25 27 28 29 27 28 27 24 27 29 29 29 26 26 26 28 28 28
31 30 26 26 33 32 35 38 39 37 37 38 38 38 39 36 36 37 34 34 32 27 25 23 22 23 21 21 25 27 31 30 30 28 26 28 29 28 28 30 30 35 35 36
MSLP
1013.32 1013.56 1013.03 1013.07 1013.06 1012.84 1013.17 1013.49 1013.31 1013.50 1014.25 1014.55 1014.43 1013.76 1012.86 1012.00 1011.58 1011.58 1011.61 1011.29 1011.20 1011.07 1010.75 1010.84 1011.20 1011.80 1012.67 1013.45 1014.07 1014.49 1015.28 1016.01 1016.72 1017.32 1017.90 1018.28 1018.44 1018.60 1018.84 1018.65 1019.22 1019.46 1020.01 1020.71
1013.74 1013.57 1013.04 1012.97 1013.14 1013.22 1013.50 1014.04 1013.97 1013.87 1014.37 1014.87 1014.42 1013.51 1012.49 1011.65 1010.74 1010.58 1010.56 1010.49 1010.25 1010.21 1010.12 1010.26 1010.58 1011.22 1011.90 1012.66 1013.38 1014.06 1014.60 1015.29 1015.94 1016.62 1017.11 1017.64 1017.97 1018.26 1018.47 1018.70 1018.97 1019.20 1019.30 1019.86
1013.40 1013.41 1013.05 1013.41 1013.81 1013.98 1013.98 1014.25 1014.48 1014.64 1014.91 1014.64 1014.78 1013.50 1011.70 1010.25 1009.80 1009.66 1009.43 1009.38 1009.44 1009.52 1009.67 1009.74 1010.09 1010.62 1011.32 1012.13 1012.78 1013.45 1013.87 1014.59 1015.46 1016.15 1016.93 1017.52 1018.00 1018.29 1018.46 1018.53 1018.80 1019.03 1019.23 1019.38
1013.53 1013.65 1013.87 1013.88 1014.28 1014.48 1014.60 1014.28 1014.62 1015.15 1015.93 1015.74 1015.29 1014.00 1011.68 1010.53 1009.52 1009.17 1008.74 1008.94 1008.74 1009.00 1008.85 1009.18 1009.56 1010.33 1010.79 1011.39 1012.12 1012.84 1013.64 1014.38 1015.04 1015.65 1016.29 1016.81 1017.03 1017.60 1017.68 1017.97 1018.47 1018.87 1019.18 1019.42
1013.63 1014.05 1014.34 1014.43 1014.39 1014.63 1015.09 1015.08 1015.30 1015.67 1016.54 1016.48 1015.74 1015.28 1011.37 1010.29 1009.42 1008.63 1008.14 1008.19 1008.18 1008.33 1008.45 1008.82 1009.36 1009.74 1010.48 1011.18 1011.91 1012.67 1013.20 1013.77 1014.25 1014.89 1015.42 1016.09 1016.74 1017.01 1017.34 1017.90 1018.53 1018.98 1019.45 1019.54
1014.36 1014.47 1014.57 1014.68 1015.17 1015.25 1015.61 1015.96 1016.26 1016.78 1017.22 1016.85 1015.66 1014.71 1011.18 1010.04 1008.80 1007.88 1007.65 1007.89 1008.31 1008.74 1008.87 1009.22 1009.56 1010.00 1010.38 1010.96 1011.64 1012.28 1012.89 1013.43 1013.95 1014.54 1015.06 1015.44 1015.95 1016.67 1017.23 1017.54 1017.96 1018.39 1019.00 1019.23
1014.47 1014.51 1014.92 1015.08 1015.77 1015.93 1016.13 1016.54 1017.21 1017.96 1018.14 1016.49 1015.03 1013.97 1010.79 1008.95 1007.98 1007.97 1007.92 1008.06 1008.58 1008.92 1009.20 1009.65 1010.12 1010.58 1010.91 1011.43 1011.87 1012.32 1012.84 1013.35 1013.69 1014.17 1014.65 1015.17 1015.60 1015.91 1016.22 1016.55 1016.97 1017.48 1018.06 1018.35
1014.03 1014.68 1014.76 1014.98 1014.98 1015.42 1016.09 1016.30 1016.56 1017.48 1018.02 1017.16 1015.63 1012.91 1009.98 1008.47 1007.85 1007.68 1007.75 1008.10 1008.66 1009.16 1009.33 1009.57 1010.06 1010.43 1010.99 1011.68 1012.15 1012.61 1013.02 1013.42 1013.70 1013.97 1014.30 1014.56 1015.00 1015.43 1015.69 1015.92 1016.10 1016.41 1016.88 1017.52
1013.70 1013.74 1013.78 1014.37 1014.72 1014.71 1016.04 1016.17 1015.98 1017.11 1017.94 1017.57 1015.11 1011.96 1009.93 1008.71 1008.32 1008.18 1008.15 1008.60 1008.88 1009.27 1009.68 1009.81 1010.03 1010.50 1011.20 1011.94 1012.35 1012.71 1013.12 1013.45 1013.69 1013.77 1014.03 1014.38 1014.65 1014.87 1015.19 1015.34 1015.52 1015.86 1016.21 1016.61
1013.22 1014.06 1014.70 1015.26 1015.17 1015.04 1015.38 1015.52 1016.25 1017.21 1018.08 1017.61 1014.50 1012.49 1010.42 1009.45 1008.95 1008.29 1008.44 1008.91 1009.23 1009.60 1009.81 1010.09 1010.36 1010.95 1011.58 1011.85 1012.26 1012.61 1012.89 1013.15 1013.39 1013.53 1013.78 1014.08 1014.29 1014.46 1014.56 1014.67 1014.81 1014.95 1015.36 1015.91
1013.58 1014.50 1015.74 1015.78 1015.50 1015.19 1015.82 1015.61 1015.83 1016.25 1016.84 1016.34 1014.85 1012.07 1009.47 1009.01 1008.78 1008.79 1009.03 1009.26 1009.65 1009.88 1010.19 1010.35 1010.74 1011.13 1011.68 1011.95 1012.26 1012.38 1012.64 1012.79 1012.90 1013.06 1013.20 1013.49 1013.79 1013.96 1014.14 1014.22 1014.29 1014.42 1014.80 1015.22
1014.08 1014.73 1015.26 1015.30 1015.02 1015.06 1015.09 1014.85 1015.51 1015.83 1016.45 1016.18 1015.11 1010.83 1009.29 1008.91 1008.82 1008.94 1009.43 1009.50 1009.61 1009.85 1010.32 1010.50 1010.71 1011.01 1011.45 1012.07 1012.49 1012.43 1012.44 1012.49 1012.44 1012.44 1012.51 1012.83 1013.21 1013.54 1013.79 1013.82 1013.98 1014.32 1014.60 1015.02
1015.54 1015.97 1016.09 1015.91 1015.99 1015.64 1015.38 1015.21 1015.32 1015.69 1016.03 1015.53 1014.93 1010.85 1009.04 1009.20 1009.57 1009.35 1009.32 1009.65 1009.73 1009.88 1010.31 1010.45 1010.52 1010.61 1010.73 1010.97 1011.34 1011.52 1011.54 1011.55 1011.91 1012.30 1012.64 1012.71 1012.66 1012.90 1013.01 1013.19 1013.38 1013.83 1014.32 1014.75
1015.94 1017.04 1017.03 1015.92 1015.61 1015.50 1015.55 1015.57 1015.58 1015.96 1016.01 1014.49 1014.29 1011.49 1009.78 1010.17 1010.04 1009.86 1009.66 1009.71 1009.78 1010.03 1010.28 1010.23 1010.26 1010.38 1010.28 1010.39 1010.48 1010.60 1010.76 1010.90 1011.11 1011.50 1011.82 1012.16 1012.32 1012.41 1012.52 1012.76 1012.96 1013.22 1013.71 1014.32
1016.59 1017.31 1017.49 1016.93 1016.27 1016.11 1016.52 1016.64 1016.28 1016.10 1015.52 1015.44 1013.09 1012.82 1009.07 1010.59 1010.40 1010.22 1009.70 1009.69 1009.87 1009.89 1010.05 1010.06 1010.08 1010.03 1009.80 1009.89 1009.94 1009.90 1009.96 1010.12 1010.44 1010.99 1011.16 1010.88 1011.21 1011.64 1011.98 1012.30 1012.58 1012.81 1013.22 1013.78
1016.97 1017.57 1017.80 1017.39 1016.87 1016.69 1016.23 1015.86 1015.40 1015.30 1014.61 1014.35 1012.98 1012.14 1009.86 1009.94 1010.21 1010.02 1009.59 1010.11 1009.87 1009.80 1009.94 1009.92 1009.94 1009.88 1009.66 1009.52 1009.38 1009.23 1009.34 1009.55 1010.01 1010.52 1010.83 1010.94 1011.03 1011.38 1011.86 1012.25 1012.60 1012.88 1013.27 1013.75
1017.50 1017.79 1018.18 1017.35 1017.24 1016.92 1016.20 1014.19 1014.60 1013.69 1013.06 1012.87 1012.18 1010.65 1010.89 1010.21 1010.09 1009.54 1010.27 1010.35 1009.84 1009.94 1009.86 1009.94 1009.88 1009.74 1009.49 1009.41 1009.55 1009.54 1009.41 1009.44 1009.81 1010.32 1010.74 1011.02 1011.42 1011.50 1011.74 1011.95 1012.51 1013.07 1013.57 1013.99
1017.95 1018.34 1018.65 1018.15 1017.92 1016.46 1013.97 1012.97 1012.90 1012.82 1012.42 1012.28 1012.06 1011.50 1010.67 1010.65 1009.84 1009.43 1010.51 1010.05 1010.04 1009.82 1009.92 1009.97 1009.81 1009.84 1009.97 1009.88 1009.81 1009.83 1009.87 1009.95 1010.05 1010.33 1010.68 1011.18 1011.41 1011.58 1011.91 1012.01 1012.28 1012.98 1013.56 1014.08
1017.84 1018.69 1018.80 1018.45 1017.59 1015.99 1014.60 1013.08 1013.37 1013.22 1012.37 1012.24 1012.18 1011.66 1011.10 1011.10 1010.93 1009.98 1011.13 1011.44 1011.45 1011.38 1011.38 1011.21 1011.38 1011.28 1010.86 1010.61 1010.46 1010.42 1010.41 1010.58 1010.71 1010.79 1011.00 1011.29 1011.53 1011.91 1012.11 1012.30 1012.60 1013.02 1013.61 1014.26
1017.62 1017.90 1018.97 1018.61 1017.82 1016.20 1013.85 1013.15 1013.01 1012.83 1012.88 1012.87 1012.75 1012.82 1012.73 1012.41 1012.42 1011.77 1011.87 1011.63 1011.52 1011.68 1011.87 1011.80 1011.94 1011.92 1011.54 1011.33 1011.25 1011.12 1011.00 1010.87 1011.17 1011.28 1011.42 1011.60 1011.78 1012.07 1012.30 1012.54 1012.91 1013.16 1013.60 1014.11
1018.26 1018.27 1018.24 1017.83 1017.25 1015.79 1013.74 1013.09 1013.40 1014.22 1014.11 1014.07 1014.00 1013.94 1013.80 1013.81 1013.49 1012.92 1012.58 1012.21 1012.02 1011.98 1011.91 1011.87 1011.91 1012.00 1011.99 1011.87 1011.90 1011.85 1011.76 1011.76 1011.50 1011.59 1011.75 1012.00 1011.99 1012.32 1012.37 1012.61 1012.87 1013.46 1013.97 1014.46
1017.77 1017.98 1017.83 1017.52 1016.77 1015.31 1013.55 1013.24 1013.82 1014.21 1014.04 1014.29 1014.31 1014.25 1014.31 1013.78 1013.29 1013.21 1012.72 1012.47 1012.31 1012.21 1012.16 1012.08 1012.02 1011.97 1011.90 1012.29 1012.22 1012.14 1012.49 1012.60 1012.35 1012.13 1012.49 1012.71 1012.77 1012.70 1012.88 1013.27 1013.74 1014.01 1014.54 1014.94
1017.69 1016.69 1016.48 1016.13 1015.19 1014.39 1013.78 1013.62 1013.73 1013.95 1014.36 1014.67 1014.52 1013.91 1013.95 1013.82 1013.43 1012.90 1012.39 1012.22 1012.28 1012.18 1012.38 1012.40 1012.54 1012.52 1012.31 1012.26 1012.62 1012.54 1012.35 1012.39 1012.77 1013.09 1013.06 1013.16 1013.23 1013.47 1013.54 1013.81 1014.42 1014.70 1014.85 1015.21
1016.61 1016.06 1016.32 1016.06 1014.93 1014.38 1014.04 1013.73 1013.82 1014.06 1014.28 1013.95 1013.94 1013.80 1013.59 1013.43 1013.09 1012.90 1012.56 1012.33 1012.31 1012.19 1012.29 1012.50 1012.76 1012.77 1013.00 1012.48 1012.24 1013.31 1013.18 1012.42 1013.06 1013.14 1013.26 1013.39 1013.40 1013.93 1014.52 1014.29 1014.51 1014.81 1014.98 1015.53
1016.50 1016.39 1016.03 1015.75 1014.92 1014.76 1014.21 1013.93 1013.74 1013.61 1013.86 1013.62 1013.34 1013.53 1013.50 1013.40 1012.90 1012.69 1012.49 1012.47 1012.26 1012.13 1012.26 1012.78 1012.88 1012.82 1013.19 1013.33 1012.59 1012.78 1013.60 1013.50 1013.10 1013.03 1013.49 1013.67 1013.69 1013.63 1014.52 1014.83 1014.87 1014.99 1014.84 1014.93
1015.98 1015.81 1015.93 1015.11 1014.99 1014.95 1014.51 1014.07 1013.85 1013.93 1013.82 1013.50 1013.26 1012.99 1012.88 1013.27 1013.15 1012.75 1013.04 1012.74 1012.66 1012.59 1012.83 1012.98 1013.11 1013.07 1013.26 1013.49 1013.04 1013.57 1013.06 1014.09 1012.98 1013.35 1013.73 1013.87 1013.68 1014.01 1014.62 1014.95 1015.00 1015.23 1015.48 1015.32
Wind_Speed
1 3 6 9 9 6 4 7 6 4 3 1 8 12 12 10 8 9 10 10 11 12 9 11 11 12 11 10 10 13 11 11 9 7 7 5 7 4 4 7 4 8 7 12
3 5 8 3 5 3 1 6 7 6 6 1 8 14 11 11 11 11 11 11 11 9 10 9 11 11 13 12 10 9 12 13 12 10 8 5 4 4 3 4 5 5 10 12
5 1 5 5 2 2 4 6 7 5 3 7 4 11 7 10 12 11 12 13 10 10 9 9 10 12 11 12 11 11 12 13 12 10 5 3 3 1 3 5 7 5 4 7
6 4 4 4 5 6 5 4 6 4 4 4 3 8 4 10 8 9 10 9 10 10 9 8 6 7 11 13 9 10 9 9 10 10 9 10 9 7 5 4 4 6 5 6
4 6 5 4 5 6 2 3 3 3 3 5 5 3 9 7 7 7 10 9 7 5 7 7 8 7 9 9 9 8 9 10 10 12 10 9 8 5 3 4 7 7 7 9
2 0 2 3 4 3 7 4 3 2 2 6 10 10 5 6 6 3 3 4 7 6 6 5 5 5 3 7 8 8 9 7 8 9 11 10 10 7 6 6 7 7 7 9
6 5 3 2 5 5 2 4 1 3 0 9 3 5 11 8 10 5 6 5 3 6 4 2 5 4 4 5 6 6 7 8 8 9 9 9 8 10 10 9 9 10 8 7
9 4 11 8 7 9 10 8 7 7 5 4 6 9 7 9 3 3 5 5 1 5 5 7 7 6 7 6 5 5 6 6 8 8 9 8 9 7 7 7 7 8 8 9
5 6 2 4 2 7 6 8 2 4 2 4 6 7 7 6 7 7 7 6 8 7 6 6 5 5 7 6 6 7 6 5 6 7 7 7 7 8 7 8 7 6 7 7
2 5 3 3 4 4 3 1 3 2 3 5 7 8 9 2 8 10 3 3 5 5 5 4 4 5 3 5 5 7 7 8 7 7 7 6 7 7 8 7 8 8 7 9
4 4 1 4 7 8 3 4 3 3 5 6 6 8 3 2 6 8 6 6 3 2 2 3 3 3 3 3 5 6 7 8 8 8 7 7 7 7 7 7 7 7 6 7
2 2 5 8 3 3 2 6 7 5 3 3 3 17 2 7 8 8 4 3 4 5 4 2 2 5 4 5 6 7 7 7 8 8 8 8 7 7 7 7 7 6 7 5
3 2 3 3 1 3 3 4 5 7 3 8 7 15 6 3 7 3 2 1 1 2 3 5 4 5 7 8 8 8 8 9 7 7 7 7 8 8 8 8 7 7 7 7
7 4 6 7 6 4 3 3 4 6 3 16 14 22 21 9 8 7 7 4 4 5 6 6 6 6 7 7 8 8 8 9 8 8 8 8 8 9 7 7 7 8 8 8
6 7 9 11 13 11 8 8 13 14 14 9 19 17 31 15 13 9 8 6 7 8 7 7 9 10 7 7 8 8 8 8 7 9 9 13 8 7 7 7 7 7 8 8
7 3 8 9 12 12 15 15 19 20 23 22 28 26 30 22 16 17 16 8 9 8 8 8 9 9 9 8 8 7 8 8 8 9 11 8 7 7 7 7 7 6 7 7
5 5 4 12 4 6 9 21 17 21 21 21 21 24 11 13 13 15 12 10 16 14 14 11 9 8 8 7 5 5 5 3 6 8 4 4 5 6 7 6 6 6 6 5
4 3 3 5 3 11 9 2 11 16 16 13 15 16 21 19 20 19 6 12 17 16 15 11 9 5 3 4 5 5 5 4 3 3 3 3 4 4 4 5 6 6 5 6
12 5 3 5 5 9 17 16 4 6 14 7 12 18 18 10 10 15 9 9 7 7 8 5 5 6 7 5 4 4 4 4 2 3 3 5 4 5 4 4 5 3 5 3
14 15 9 7 5 7 18 14 7 3 11 7 5 7 7 10 7 11 8 7 6 7 5 7 8 8 7 6 7 6 3 1 3 3 3 3 3 4 4 4 4 3 3 4
4 3 15 14 13 8 10 12 2 6 9 3 3 5 6 6 4 10 11 11 6 4 7 5 4 5 5 6 6 6 2 0 0 3 3 3 3 4 4 4 3 5 5 6
8 6 5 4 8 14 3 4 7 3 2 2 4 6 9 9 12 9 10 9 9 8 7 5 5 5 2 4 3 0 2 4 3 5 5 4 4 3 4 6 5 6 6 6
5 8 6 9 7 3 2 3 2 3 4 5 6 12 9 9 10 10 10 12 10 9 7 3 4 4 3 2 2 3 2 4 4 4 5 5 6 5 5 7 5 5 5 5
4 1 3 4 9 11 3 4 1 4 7 8 7 11 9 9 9 10 9 11 7 6 7 3 4 4 2 0 6 2 1 6 4 5 5 7 8 6 4 3 4 4 4 3
6 3 2 5 9 4 6 5 6 4 8 10 9 7 9 7 13 11 11 9 10 9 3 3 5 3 2 2 4 4 0 0 6 6 7 7 6 7 5 3 3 3 2 4
5 9 7 10 8 4 9 7 9 9 10 12 13 13 12 8 10 11 10 8 7 4 2 2 1 3 3 1 3 4 3 5 7 7 4 5 6 5 4 6 7 12 10 10
Wind_Direction
176 206 196 204 224 257 25 322 332 56 119 157 240 260 260 261 253 240 234 227 232 241 230 206 192 186 185 188 189 187 176 178 177 183 189 193 198 191 206 209 210 181 171 168
119 226 236 79 31 197 174 290 284 299 102 131 274 277 265 266 248 232 242 243 242 241 227 221 197 179 180 188 190 183 186 181 188 192 194 190 166 207 192 184 207 239 176 172
202 137 173 121 111 146 230 238 265 276 358 222 290 279 237 253 252 249 243 248 248 241 239 228 194 184 173 183 186 194 196 188 188 187 165 153 131 220 187 192 209 214 199 167
225 169 133 154 226 181 254 270 221 319 23 249 35 288 291 297 282 229 244 234 238 239 237 229 218 187 181 190 179 182 184 182 186 181 182 189 195 189 202 174 174 208 194 187
196 156 167 179 170 179 198 5 119 108 240 318 205 244 268 247 267 251 265 265 250 254 218 206 205 192 187 172 179 177 179 187 184 188 190 185 201 198 159 164 181 204 206 206
40 129 182 171 59 11 133 97 117 142 192 264 205 209 231 229 237 278 136 103 90 73 49 29 56 43 136 165 173 179 180 190 185 185 197 194 192 182 189 181 181 188 204 204
174 181 124 133 90 33 256 144 296 306 323 235 324 246 236 291 289 255 275 284 34 142 143 246 203 209 231 174 162 165 175 192 186 186 193 204 202 189 202 192 189 187 197 203
198 205 149 190 192 170 197 186 171 206 203 266 330 246 263 218 256 283 277 303 283 246 210 223 237 200 183 180 165 171 190 204 193 192 200 201 209 215 220 212 199 201 195 205
197 231 113 144 88 136 181 220 250 340 16 36 233 274 293 199 235 300 297 313 318 359 22 360 245 155 143 163 184 185 191 212 221 205 203 210 209 206 216 223 196 194 193 189
236 272 351 60 64 308 181 203 108 259 200 251 264 293 246 341 242 244 214 84 48 34 27 350 79 106 102 147 169 181 190 199 210 212 209 213 216 215 218 213 207 202 193 192
172 217 26 103 204 174 144 226 217 167 181 181 273 255 267 161 77 99 68 56 48 83 81 79 95 107 148 174 193 196 201 201 203 205 209 211 223 226 221 221 213 204 190 182
276 301 219 199 119 41 263 221 193 167 230 244 168 267 75 100 111 97 90 325 317 33 45 66 140 176 186 220 234 227 217 215 211 206 202 204 210 220 231 223 212 198 200 184
332 335 61 331 115 54 225 214 235 272 44 212 162 261 146 62 80 93 171 124 90 143 283 284 278 228 222 217 210 212 212 219 215 207 212 213 213 212 218 216 201 196 190 183
107 158 220 225 108 49 149 192 237 201 227 250 244 269 272 293 315 325 320 227 213 221 256 275 281 260 251 245 227 217 221 212 205 199 203 217 219 216 212 210 204 195 184 173
129 199 211 250 282 293 275 281 298 283 278 263 268 268 276 281 282 275 271 311 304 289 274 266 277 298 289 264 259 242 235 216 198 202 209 218 203 205 206 211 205 190 178 173
149 227 205 255 244 248 263 258 242 239 247 244 251 254 258 273 277 277 280 300 294 297 282 268 270 269 281 270 261 251 243 227 195 204 221 224 194 191 204 208 204 182 173 168
172 147 159 257 208 238 255 240 237 244 242 237 246 260 280 291 285 282 305 305 298 299 295 294 285 272 269 292 316 304 299 269 213 222 233 206 196 196 200 186 176 173 170 153
144 138 195 262 101 233 250 199 231 240 258 259 266 273 276 277 282 286 295 269 287 295 297 291 294 325 21 349 341 338 351 329 262 221 179 222 193 194 176 161 165 154 153 165
207 191 236 243 210 293 306 283 292 290 276 248 244 249 266 316 324 295 24 17 9 352 332 331 345 326 325 346 355 352 334 333 308 231 216 216 184 176 164 158 154 137 124 128
215 211 212 256 235 236 262 270 243 10 273 351 34 16 350 353 320 294 342 336 342 337 337 332 329 320 324 343 344 326 306 232 250 251 234 199 158 155 156 148 135 110 119 126
150 196 222 233 241 260 253 254 357 277 264 265 22 333 312 299 268 294 307 303 288 263 294 288 300 300 320 344 330 298 272 348 318 65 69 77 105 130 136 119 95 112 103 114
176 163 188 210 237 259 247 7 192 240 174 206 230 233 256 261 275 259 264 272 284 279 282 286 292 272 337 344 327 30 29 346 32 72 73 62 56 65 76 95 80 85 94 101
242 209 195 182 204 227 177 223 135 139 169 271 271 289 266 260 277 285 291 301 287 280 274 258 265 288 2 14 317 161 200 116 92 77 81 75 69 64 76 96 92 93 94 107
289 94 202 33 276 275 320 311 181 217 250 267 261 269 273 274 284 283 290 285 275 269 249 220 215 216 254 59 84 358 273 127 104 111 107 110 103 85 57 75 108 119 119 121
205 67 223 271 286 346 291 275 303 298 284 280 284 270 266 288 293 292 293 281 286 284 216 201 215 169 149 348 73 104 266 269 130 115 121 118 116 106 90 78 109 87 87 137
212 247 252 261 268 239 275 263 287 284 279 279 285 286 267 233 256 291 281 276 277 269 212 173 111 117 105 36 72 2 65 238 137 120 119 126 116 105 103 114 98 81 78 86